Location: Unspecified
(43.8044°N, 11.0278°E)
Time: 18:00:11
(UTC+01:00)

CZ-3 Stage 3 - Visible Passes

Search period start: 16 December 2017 00:00
Search period end: 26 December 2017 00:00
Orbit: 418 x 34779 km, 31.0° (Epoch: 15 December)

Date Brightness Start Highest point End Pass type
(mag) Time Alt. Az. Time Alt. Az. Time Alt. Az.
17 Dec 6.1 05:12:46 13° SW 05:22:09 22° S 06:19:10 10° SSE visible
20 Dec 6.1 05:04:01 13° SW 05:13:02 21° S 06:04:18 10° SSE visible
23 Dec 6.2 04:55:17 14° SW 05:03:54 20° S 05:49:53 10° SSE visible
25 Dec 5.9 17:53:02 10° S 17:57:26 11° S 18:00:33 10° SSE visible
